Wetbulb
64.33 61.95 60.39 59.84 59.31 58.32 56.49 55.25 54.05 53.02 53.07 53.13 53.88 54.17 54.90 55.24 54.68 53.82 53.31 53.71 53.37 52.34 51.44 50.65 48.79 47.66 45.86 44.96 45.64 46.00 46.73 46.59 44.17 46.66 48.28 48.46 47.78 48.56 50.02 51.48 52.79 52.40 52.33
61.90 60.42 58.82 57.99 57.38 55.66 54.44 53.76 53.64 52.91 52.89 53.22 54.13 54.87 55.24 55.09 54.40 53.72 53.70 53.25 52.84 52.44 50.45 48.88 47.54 48.58 42.99 42.63 43.23 44.35 44.92 46.20 45.96 43.50 45.73 46.58 46.67 48.39 48.47 49.48 51.69 53.03 52.13
60.59 58.63 57.27 56.40 55.07 53.94 53.73 53.34 53.04 52.42 52.63 53.84 54.56 54.25 54.44 54.15 53.53 53.31 53.80 53.51 52.66 52.05 49.35 47.03 45.65 43.37 41.44 41.33 41.98 43.13 44.22 46.51 46.48 44.92 44.70 46.22 46.97 48.22 49.00 50.06 50.88 51.35 53.32
59.06 57.73 56.44 56.36 54.18 53.71 53.31 52.37 52.50 53.16 53.04 52.89 52.67 52.03 51.95 52.00 53.50 54.04 53.80 51.98 49.85 49.57 48.41 47.38 45.51 43.24 41.79 41.74 43.33 42.88 43.95 43.93 44.95 45.35 44.66 46.37 49.22 51.50 50.99 49.14 48.89 50.86 49.88
57.86 56.88 55.84 54.75 54.22 53.50 53.40 53.74 53.95 53.55 51.73 51.00 49.91 48.94 48.22 48.45 49.45 52.33 52.65 50.40 47.61 47.28 47.82 47.14 44.28 45.95 47.71 46.81 44.86 44.20 43.52 43.79 44.12 44.10 43.65 45.06 47.41 49.14 49.39 50.66 48.25 49.80 49.66
57.22 55.30 55.02 54.58 54.27 53.39 53.71 53.51 53.33 51.15 49.48 48.75 47.58 47.41 45.66 45.87 45.31 48.85 51.51 50.67 48.76 45.50 44.37 44.03 43.04 43.41 43.20 46.45 48.63 49.85 48.13 44.57 43.44 42.68 42.44 43.37 45.33 49.11 50.68 49.66 48.74 48.32 46.63
56.10 55.34 54.90 54.47 53.67 53.54 53.77 53.35 52.02 49.42 47.72 46.06 45.21 44.38 42.43 40.92 42.25 44.43 49.04 50.33 47.22 43.92 40.50 39.92 41.04 42.00 40.94 40.55 43.91 46.51 46.18 48.08 49.09 44.17 42.40 43.59 45.00 46.92 50.01 47.70 47.40 47.20 47.51
55.02 54.69 54.79 54.05 53.40 53.43 53.49 52.36 51.21 49.62 47.20 44.97 42.39 40.86 39.75 39.96 41.74 42.25 46.84 48.73 43.85 40.53 39.58 39.26 37.97 37.75 39.03 39.37 39.38 40.81 40.98 41.24 42.32 44.23 43.36 45.12 45.52 46.84 48.76 48.59 45.49 45.27 47.90
54.34 54.31 54.20 54.03 53.44 53.41 52.00 51.65 51.33 49.84 46.61 44.00 42.32 39.15 37.14 37.88 41.52 43.20 47.28 42.30 39.67 38.71 39.80 39.58 38.80 37.81 40.34 40.48 38.65 39.20 39.81 41.98 45.59 45.88 44.82 43.54 42.87 43.43 46.93 48.46 45.99 44.91 45.40
54.23 54.38 54.22 53.98 54.13 52.64 51.63 50.88 50.33 50.40 48.31 45.35 40.98 37.69 40.65 38.16 41.05 43.40 43.77 40.71 37.96 39.25 39.20 39.35 42.39 39.56 39.47 39.44 37.56 37.51 38.32 39.05 40.01 40.79 41.88 42.41 42.39 43.04 48.18 46.95 45.04 43.42 46.50
55.26 54.69 54.05 54.35 53.35 51.98 50.95 50.74 50.69 51.33 48.06 42.72 40.17 38.36 37.39 38.24 38.64 40.13 40.86 42.64 41.55 39.31 38.10 38.17 38.91 40.29 39.56 39.67 39.45 38.39 38.46 39.08 40.85 39.37 39.53 40.96 41.16 41.07 42.78 45.21 44.47 46.34 46.34
54.72 53.82 53.63 53.60 53.90 52.56 50.72 50.18 49.95 50.28 46.68 43.21 41.12 40.04 39.05 38.14 40.65 39.90 39.97 40.53 41.78 39.00 38.87 38.71 39.06 39.75 40.56 40.27 39.70 39.83 40.31 40.85 39.48 38.74 38.01 37.97 38.10 39.08 39.65 42.93 41.84 41.96 46.49
53.47 52.71 52.94 53.69 52.64 51.87 51.15 50.42 50.23 50.14 47.92 45.08 42.60 38.82 37.64 36.04 35.87 40.14 39.11 40.00 40.56 36.71 36.87 40.00 40.38 39.80 40.39 40.02 40.45 40.20 40.03 38.42 37.67 37.14 36.40 36.89 37.69 38.96 39.61 39.70 40.06 39.26 41.68
52.47 52.52 52.83 51.48 51.40 51.40 51.11 51.08 50.08 49.42 47.72 45.00 42.49 39.29 33.86 32.27 33.02 33.85 34.94 34.38 37.57 38.41 40.77 40.46 40.81 40.17 40.44 40.42 39.23 38.63 38.15 38.30 37.16 36.21 36.00 36.69 38.57 39.44 37.90 38.13 35.74 36.79 36.22
52.61 52.44 49.75 47.38 43.43 39.00 35.99 39.20 44.48 41.55 48.63 47.85 45.06 37.44 32.32 30.83 32.37 33.88 33.62 33.31 34.10 36.10 37.84 37.09 36.67 36.16 35.92 36.36 36.87 36.99 37.13 37.97 37.45 36.60 36.83 36.33 37.69 38.65 38.47 37.47 36.88 34.88 33.64
50.00 47.43 46.08 43.72 41.10 38.72 36.51 35.12 36.46 37.88 38.77 39.02 38.34 36.78 33.35 34.38 35.36 35.74 35.86 35.97 36.83 37.81 36.00 34.21 33.84 33.84 33.72 34.31 35.06 34.77 35.38 36.67 36.01 37.26 36.38 36.47 36.17 37.09 37.17 37.21 36.37 34.07 32.85
48.32 45.51 43.72 41.66 39.71 37.92 38.23 37.36 33.41 34.15 36.74 35.76 35.28 35.07 34.91 34.72 35.39 35.33 35.45 36.06 36.14 37.01 34.19 32.99 32.98 33.16 32.97 33.77 33.91 33.39 32.61 33.65 35.01 35.61 35.24 35.69 35.99 36.47 36.83 36.63 36.61 34.93 34.80
47.43 44.48 44.35 42.49 40.99 39.12 38.11 37.04 36.40 35.36 32.73 30.63 33.65 33.85 34.77 34.72 34.73 34.92 35.75 36.47 35.39 34.99 33.19 32.57 31.97 32.35 32.20 32.16 32.26 32.02 32.04 32.48 32.78 33.66 34.38 35.05 34.74 34.15 35.25 34.95 35.08 33.56 32.78
47.95 46.81 45.33 44.30 42.50 40.57 38.67 38.11 36.48 34.50 32.98 31.61 31.57 33.23 33.52 35.03 35.38 36.39 36.29 35.25 33.43 32.31 32.60 32.28 31.83 30.96 30.45 30.21 30.15 30.74 31.14 31.00 31.41 32.26 33.24 33.68 33.96 32.51 33.25 33.00 33.24 32.14 31.77
48.76 44.22 45.23 44.71 43.40 42.34 41.36 39.45 36.54 33.66 32.52 33.20 33.43 32.88 34.72 35.82 35.52 34.11 34.31 34.05 33.14 32.31 32.32 31.51 30.88 30.12 29.25 28.40 27.87 28.00 29.11 30.21 30.30 30.41 30.88 32.17 33.17 32.05 32.18 31.69 32.13 31.22 30.91
49.01 47.16 42.05 46.24 44.29 43.82 43.32 40.09 37.65 35.54 34.88 34.62 34.91 35.88 33.44 35.67 33.68 33.81 32.99 33.08 32.90 32.07 30.64 29.83 28.84 28.62 27.95 27.01 26.64 26.61 27.32 27.51 27.74 28.32 29.27 30.78 32.28 30.91 31.87 31.34 31.52 31.33 30.70
49.59 47.91 48.66 47.40 47.16 45.83 44.05 41.89 39.85 38.57 37.80 37.03 35.40 33.59 32.78 34.87 34.10 33.69 33.24 33.30 32.87 32.05 31.19 30.69 28.52 27.54 26.88 26.06 25.59 25.57 25.30 25.52 26.40 27.41 28.33 29.83 31.19 30.78 30.99 30.63 30.67 30.02 29.85
48.75 48.61 48.49 47.97 47.38 42.20 44.22 43.63 42.20 39.67 37.71 36.72 35.90 36.67 36.11 34.51 34.51 34.32 34.31 33.28 32.45 31.41 30.19 29.77 27.95 26.26 26.20 25.82 25.69 25.42 25.11 25.28 25.95 27.30 27.53 29.50 30.15 29.44 29.57 29.17 29.77 29.26 28.65
48.36 47.44 47.16 47.42 46.11 45.61 44.99 43.84 42.22 37.94 38.62 37.60 37.74 37.26 35.83 35.31 34.89 34.92 33.87 33.10 32.22 30.89 29.80 28.59 27.26 26.11 25.65 25.54 25.80 26.18 26.66 26.87 27.75 27.50 28.22 29.18 28.76 29.53 29.25 28.93 28.84 30.40 29.12
47.70 46.37 46.78 46.99 45.94 45.69 44.97 44.47 43.17 40.41 39.05 38.20 38.39 37.08 35.70 35.51 34.69 34.55 33.69 33.63 32.46 30.92 29.38 28.06 26.72 26.54 26.69 27.01 26.78 27.44 28.21 29.40 28.89 29.19 29.50 29.44 29.33 29.36 28.96 28.61 29.01 29.15 29.04
48.59 47.17 46.84 46.79 46.50 45.84 45.19 44.46 43.98 41.81 39.63 39.42 38.93 37.15 36.22 35.41 34.84 34.06 33.79 33.03 31.81 30.46 29.11 27.53 27.47 27.56 26.79 26.52 27.47 28.13 28.69 29.22 29.17 30.30 29.64 29.93 28.46 28.22 28.41 28.95 29.78 28.85 28.56
MSLP
1006.89 1008.02 1008.48 1010.01 1010.81 1011.81 1012.81 1013.65 1014.21 1014.81 1015.34 1016.02 1016.22 1016.51 1016.87 1017.51 1017.83 1018.09 1018.36 1018.69 1018.87 1019.05 1019.52 1019.49 1019.63 1019.61 1019.72 1019.59 1019.20 1019.02 1018.99 1018.81 1019.01 1018.47 1017.76 1016.93 1016.27 1015.31 1014.52 1013.84 1013.28 1012.60 1012.05
1006.62 1007.77 1008.75 1010.33 1011.56 1012.27 1013.21 1014.34 1014.31 1015.09 1015.59 1016.05 1016.25 1016.77 1017.45 1017.75 1018.14 1018.43 1018.34 1018.65 1018.97 1019.52 1019.85 1020.05 1020.30 1020.16 1020.08 1019.88 1019.61 1019.31 1019.18 1018.82 1018.79 1018.60 1017.86 1017.24 1016.48 1015.55 1015.03 1014.23 1013.47 1012.71 1012.32
1007.20 1008.39 1009.27 1010.58 1011.73 1012.61 1013.93 1014.11 1014.99 1015.35 1015.62 1016.18 1016.54 1017.23 1017.88 1018.13 1018.36 1018.73 1018.54 1018.75 1019.28 1019.77 1020.05 1020.48 1020.69 1020.57 1020.36 1020.14 1019.81 1019.55 1019.33 1019.00 1018.72 1018.68 1018.28 1017.27 1016.37 1015.41 1014.96 1014.40 1013.71 1013.02 1012.45
1008.09 1008.79 1009.76 1011.45 1012.10 1013.02 1013.88 1014.39 1014.97 1015.37 1015.95 1016.53 1017.27 1017.71 1018.14 1018.49 1018.63 1018.75 1018.99 1019.18 1019.83 1020.08 1020.36 1020.96 1020.95 1020.67 1020.48 1020.17 1019.84 1019.50 1019.28 1018.94 1018.83 1018.69 1018.23 1017.35 1016.49 1015.59 1015.13 1014.78 1014.04 1013.46 1012.97
1008.49 1009.83 1010.71 1010.65 1011.72 1013.25 1014.27 1014.33 1014.92 1015.60 1016.43 1017.09 1017.77 1018.29 1018.59 1018.71 1018.88 1019.03 1019.31 1019.76 1020.10 1020.24 1020.65 1021.18 1021.25 1020.71 1020.42 1019.98 1019.73 1019.41 1019.25 1018.96 1018.89 1018.63 1018.27 1017.66 1016.75 1016.01 1015.42 1015.11 1014.68 1013.97 1013.09
1009.33 1009.69 1010.46 1010.97 1012.08 1013.58 1013.85 1014.24 1015.16 1016.10 1016.98 1017.36 1018.29 1018.99 1018.93 1019.11 1019.41 1019.31 1019.37 1019.93 1020.49 1020.68 1021.08 1021.13 1021.31 1020.76 1020.22 1019.71 1019.46 1019.23 1018.87 1018.83 1018.77 1018.69 1018.49 1017.91 1017.05 1016.47 1015.77 1015.44 1014.97 1014.25 1013.59
1008.84 1010.37 1010.01 1010.76 1012.21 1013.28 1013.47 1014.56 1015.67 1016.36 1017.39 1018.17 1018.89 1019.31 1019.30 1019.42 1019.65 1019.77 1019.81 1020.35 1020.60 1021.37 1021.53 1021.19 1021.41 1021.19 1020.59 1020.05 1019.69 1019.29 1018.84 1018.68 1018.53 1018.45 1018.33 1017.93 1017.47 1016.73 1016.22 1015.72 1015.39 1014.94 1014.18
1009.42 1010.28 1009.61 1010.80 1012.70 1013.18 1013.91 1015.12 1016.10 1016.97 1017.67 1018.53 1019.05 1019.58 1019.40 1019.74 1019.69 1020.10 1020.22 1020.76 1021.03 1021.65 1021.52 1021.34 1021.48 1021.37 1020.84 1020.43 1019.99 1019.55 1019.11 1018.61 1018.41 1018.11 1017.93 1017.59 1017.17 1016.70 1016.39 1015.94 1015.68 1015.22 1014.13
1008.71 1010.13 1010.86 1011.37 1012.82 1013.13 1014.47 1015.49 1016.39 1017.43 1018.11 1018.75 1019.15 1019.80 1019.61 1019.82 1019.59 1020.24 1020.70 1021.10 1021.47 1021.82 1021.47 1021.42 1021.49 1021.42 1021.12 1020.67 1020.24 1020.08 1019.50 1018.84 1018.09 1017.79 1017.50 1017.19 1016.67 1016.37 1016.05 1015.91 1015.88 1015.41 1014.51
1008.84 1010.41 1011.12 1011.85 1012.47 1013.57 1014.87 1016.07 1016.63 1016.99 1017.94 1018.73 1019.67 1019.72 1019.99 1020.15 1020.00 1020.45 1020.85 1021.31 1021.83 1021.73 1021.51 1021.53 1021.45 1021.47 1021.11 1020.89 1020.74 1020.53 1020.10 1019.84 1019.11 1018.47 1017.93 1017.51 1017.29 1016.94 1016.42 1016.36 1016.20 1015.99 1015.37
1008.43 1010.71 1011.87 1012.16 1012.98 1014.00 1015.11 1016.44 1016.44 1017.01 1018.04 1018.97 1019.87 1020.33 1020.48 1020.76 1020.89 1020.81 1021.23 1021.42 1021.45 1021.62 1021.42 1021.83 1021.88 1021.63 1021.35 1021.13 1020.97 1020.72 1020.64 1020.05 1019.55 1019.11 1018.67 1018.26 1017.96 1017.76 1017.28 1016.75 1016.41 1016.19 1015.78
1009.51 1010.82 1011.69 1012.76 1013.80 1014.43 1015.44 1016.15 1016.43 1017.39 1018.45 1019.30 1020.49 1020.73 1021.22 1021.42 1021.29 1021.40 1021.43 1021.24 1021.35 1021.38 1021.57 1022.00 1022.01 1021.64 1021.53 1021.52 1021.19 1020.85 1020.41 1020.17 1020.00 1019.75 1019.59 1019.31 1019.17 1018.66 1017.93 1017.15 1016.56 1016.21 1015.81
1009.79 1011.17 1012.22 1013.10 1013.88 1014.80 1015.56 1016.10 1017.05 1017.83 1018.64 1019.72 1020.58 1021.24 1021.81 1021.81 1021.69 1021.86 1021.59 1021.48 1021.32 1021.21 1021.53 1022.09 1021.95 1021.84 1021.82 1021.87 1021.55 1021.27 1020.89 1020.85 1020.78 1020.89 1020.76 1020.35 1019.69 1019.01 1018.18 1017.65 1016.82 1016.32 1016.08
1010.13 1011.41 1012.50 1013.07 1014.29 1015.24 1016.05 1016.65 1017.27 1018.22 1018.99 1019.84 1020.76 1021.57 1021.85 1022.33 1022.47 1022.09 1021.79 1021.67 1021.59 1021.42 1021.89 1022.36 1022.37 1022.46 1022.44 1022.37 1022.07 1021.89 1021.65 1021.57 1021.50 1021.61 1021.47 1020.63 1019.91 1019.32 1018.98 1018.55 1018.05 1017.58 1017.25
1010.11 1011.44 1012.61 1013.68 1014.81 1016.32 1017.66 1018.03 1017.86 1018.53 1018.82 1019.81 1020.47 1021.13 1021.67 1022.50 1022.50 1021.77 1021.87 1021.76 1021.77 1021.98 1022.54 1022.79 1023.03 1023.39 1023.39 1023.11 1022.90 1022.68 1022.47 1022.21 1022.07 1021.70 1021.61 1021.25 1020.79 1020.32 1019.76 1019.19 1018.69 1018.45 1018.29
1010.86 1012.07 1013.21 1014.41 1015.70 1016.81 1017.84 1018.87 1018.79 1018.58 1019.04 1019.58 1020.08 1020.72 1021.59 1021.89 1021.69 1021.75 1021.62 1021.49 1022.02 1022.28 1023.27 1023.81 1024.11 1024.13 1024.05 1023.86 1023.84 1023.59 1023.07 1022.71 1022.48 1022.22 1022.02 1021.73 1021.50 1021.12 1020.65 1019.99 1019.51 1019.24 1018.90
1011.31 1012.54 1013.81 1015.09 1016.21 1017.26 1018.13 1018.55 1019.24 1020.14 1019.99 1020.19 1020.70 1021.18 1021.35 1021.34 1021.61 1021.69 1021.58 1021.96 1022.40 1022.91 1023.96 1024.60 1024.89 1024.82 1024.60 1024.41 1024.34 1024.17 1024.04 1023.57 1022.93 1022.79 1022.59 1022.30 1021.93 1021.45 1021.34 1021.00 1020.49 1019.97 1019.52
1011.68 1012.98 1014.17 1015.56 1016.83 1017.59 1018.15 1018.47 1019.23 1020.03 1020.84 1021.46 1021.65 1021.47 1021.47 1021.51 1021.54 1021.68 1021.71 1022.31 1023.51 1023.91 1024.35 1024.81 1025.29 1025.31 1024.96 1024.80 1024.80 1024.70 1024.50 1024.11 1023.82 1023.81 1023.61 1023.31 1022.85 1022.43 1021.99 1021.74 1021.27 1020.87 1020.37
1012.20 1013.82 1014.59 1016.01 1017.23 1017.94 1018.41 1018.86 1019.61 1020.41 1020.99 1021.41 1021.47 1021.71 1021.41 1021.51 1021.68 1021.69 1022.12 1023.04 1024.07 1024.62 1024.92 1025.32 1025.54 1025.43 1025.22 1025.18 1025.38 1025.36 1025.24 1025.05 1024.73 1024.45 1024.12 1023.75 1023.42 1023.12 1022.75 1022.36 1021.91 1021.50 1021.06
1012.68 1013.98 1014.96 1016.35 1017.41 1017.87 1018.40 1019.09 1019.90 1020.51 1020.93 1020.99 1021.19 1021.52 1021.67 1021.68 1021.98 1022.67 1022.85 1023.60 1024.52 1024.95 1025.20 1025.53 1025.83 1025.83 1025.71 1025.69 1025.93 1025.84 1025.60 1025.59 1025.40 1025.17 1024.75 1024.38 1024.01 1023.57 1023.26 1023.01 1022.67 1022.37 1021.94
1012.93 1014.53 1015.33 1016.17 1016.73 1017.43 1018.40 1019.01 1019.65 1020.43 1020.69 1020.62 1020.99 1021.62 1021.44 1021.91 1022.47 1023.09 1023.58 1024.25 1024.69 1025.16 1025.71 1025.87 1026.05 1026.21 1026.10 1026.15 1026.07 1026.22 1025.99 1025.95 1025.62 1025.31 1025.00 1024.74 1024.22 1023.93 1023.63 1023.35 1023.14 1022.85 1022.58
1013.04 1014.29 1015.19 1015.93 1016.53 1017.29 1017.87 1018.57 1019.37 1020.16 1020.56 1020.70 1021.31 1021.73 1021.95 1022.17 1022.78 1023.63 1023.89 1024.81 1025.17 1025.56 1025.85 1025.93 1026.25 1026.44 1026.42 1026.62 1026.61 1026.47 1026.45 1026.56 1026.33 1026.04 1025.75 1025.33 1024.86 1024.71 1024.23 1023.90 1023.67 1023.43 1023.21
1012.97 1014.12 1014.91 1015.80 1016.39 1017.04 1017.63 1018.32 1019.28 1020.04 1020.29 1020.71 1021.05 1021.65 1022.15 1022.56 1023.29 1023.89 1024.22 1024.94 1025.56 1026.09 1026.21 1026.14 1026.53 1026.90 1026.97 1026.94 1026.83 1026.77 1026.71 1026.71 1026.59 1026.25 1026.13 1025.59 1025.09 1024.60 1024.61 1024.61 1024.36 1024.11 1023.89
1013.16 1013.93 1014.65 1015.61 1016.20 1016.83 1017.47 1018.51 1019.26 1019.88 1020.28 1020.87 1021.27 1021.61 1022.11 1022.61 1023.50 1024.24 1024.62 1025.25 1026.00 1026.22 1026.51 1026.61 1027.00 1027.23 1027.38 1027.45 1027.14 1027.06 1026.99 1026.71 1026.21 1026.15 1025.73 1025.53 1025.34 1025.18 1024.77 1024.69 1024.84 1024.62 1024.38
1013.14 1013.80 1014.53 1015.38 1016.17 1016.73 1017.56 1018.41 1019.05 1019.77 1020.32 1020.83 1021.45 1021.85 1022.27 1022.99 1023.65 1024.35 1025.01 1025.54 1026.07 1026.35 1026.82 1027.03 1027.33 1027.51 1027.55 1027.48 1027.36 1027.45 1027.27 1026.67 1026.21 1026.08 1025.91 1025.72 1025.48 1025.10 1025.22 1025.02 1024.93 1025.10 1025.00
1013.59 1014.21 1014.88 1015.43 1016.06 1016.75 1017.39 1018.09 1018.67 1019.25 1020.07 1020.79 1021.23 1021.77 1022.32 1023.07 1023.62 1024.37 1024.89 1025.37 1026.21 1026.68 1026.99 1027.48 1027.62 1027.81 1027.75 1027.57 1027.40 1027.43 1027.21 1026.93 1026.60 1026.23 1026.09 1025.76 1025.70 1025.46 1025.22 1025.31 1025.30 1025.28 1025.29
Wind_Speed
16 15 16 13 15 13 12 11 10 8 8 7 7 7 7 6 5 6 6 6 7 7 5 6 6 6 4 4 3 2 3 2 1 3 3 4 5 7 9 9 9 9 8
18 17 18 16 14 13 12 10 10 9 7 7 7 7 6 6 6 6 6 6 7 6 6 7 6 4 5 5 3 5 3 2 2 2 3 3 3 6 5 8 8 8 7
16 16 17 15 15 13 12 11 9 8 7 6 7 7 6 6 6 5 6 7 7 6 6 6 4 5 5 3 3 4 3 3 1 1 4 3 4 3 3 6 10 9 7
16 15 17 14 14 13 10 9 8 8 8 7 7 7 7 6 5 5 7 8 7 7 7 6 4 4 4 4 4 4 3 3 2 2 3 4 2 4 5 6 10 9 5
16 15 15 15 13 11 10 10 9 10 9 10 10 7 6 7 4 7 7 7 7 7 6 4 4 8 8 5 2 5 3 2 2 2 3 3 3 3 5 5 5 7 5
13 15 15 16 14 11 11 11 12 11 9 10 7 7 6 5 6 8 8 7 6 7 5 3 3 8 8 10 10 8 2 2 3 2 2 3 5 3 3 4 4 5 5
14 14 17 16 13 12 12 12 12 10 8 8 7 6 6 6 5 7 9 6 7 6 4 4 3 4 7 6 9 9 8 7 4 2 3 2 4 3 5 4 5 3 3
16 14 15 16 13 12 12 12 10 9 10 7 7 5 6 3 5 8 9 7 7 5 4 4 4 4 6 6 6 7 6 5 6 3 3 6 4 6 4 2 3 6 5
18 14 16 16 15 13 13 13 10 10 9 5 6 6 7 4 6 9 11 7 6 4 3 2 3 5 6 6 7 7 7 8 8 9 8 10 12 11 3 4 5 5 4
19 16 15 15 14 14 13 13 9 11 10 7 6 6 7 6 8 11 9 6 5 3 1 2 5 5 6 6 6 5 7 5 7 8 9 10 9 8 8 5 2 3 3
19 15 14 13 13 13 11 9 9 12 10 8 7 5 7 6 6 10 7 5 5 3 4 2 3 7 8 7 4 5 2 5 7 6 6 7 6 7 5 5 5 2 4
18 16 14 14 11 10 12 7 8 11 11 9 6 5 4 3 6 7 7 8 5 5 3 2 4 6 8 9 6 10 12 8 5 6 5 5 4 5 5 6 7 6 4
17 16 15 13 11 9 11 10 9 10 9 7 6 5 3 3 4 7 11 9 8 4 3 2 8 10 8 7 12 12 9 5 5 5 5 4 4 5 6 7 9 7 4
17 16 13 12 11 8 6 7 8 8 8 8 6 5 4 2 2 2 4 4 6 7 6 6 6 7 7 5 6 7 5 4 4 3 4 4 5 6 5 4 4 6 4
17 14 11 9 10 8 7 3 5 3 8 9 7 7 6 4 4 4 4 4 4 4 5 4 5 5 5 5 4 6 6 7 7 5 6 6 6 6 6 4 4 4 3
14 11 10 10 8 8 7 5 15 7 11 9 12 9 2 7 9 7 7 9 9 7 6 4 3 3 4 4 4 4 5 7 5 6 5 6 5 6 6 5 4 3 4
13 13 10 10 8 9 8 9 9 9 16 12 13 11 7 10 8 10 11 14 10 9 5 4 4 4 3 4 4 4 4 4 4 5 4 6 6 6 5 6 6 5 6
14 15 10 9 8 7 7 8 8 9 8 4 5 5 8 9 10 9 12 9 6 6 4 4 3 3 4 4 4 4 4 5 6 5 6 7 7 4 5 6 6 6 5
13 9 9 8 7 7 7 7 6 6 6 6 4 3 5 8 9 13 10 6 5 4 4 5 3 3 4 4 4 4 4 5 4 4 6 6 6 4 5 5 6 7 7
11 16 11 8 8 8 7 7 6 5 5 6 5 4 3 6 7 5 5 5 5 4 5 5 4 4 4 5 4 4 4 6 6 6 5 5 6 4 5 5 6 5 5
9 10 11 9 9 9 8 7 6 5 5 5 5 3 6 8 7 6 5 5 6 5 5 4 4 4 4 4 4 4 4 4 4 4 4 4 5 4 5 4 5 5 5
8 9 9 9 8 8 7 7 7 5 5 5 3 3 8 6 7 6 6 6 5 5 4 6 5 4 4 4 4 4 4 4 4 5 5 5 4 5 5 5 5 5 5
8 10 9 8 9 9 8 7 7 6 5 5 5 8 7 6 6 6 8 6 6 5 4 6 5 4 4 4 4 4 4 3 3 2 3 4 4 4 4 4 4 4 5
6 8 9 9 8 8 8 8 7 7 7 6 5 8 8 7 7 7 7 6 6 5 5 5 5 6 5 4 4 4 3 2 2 2 2 3 4 5 5 4 4 6 5
5 6 9 10 10 9 9 8 9 7 6 6 5 7 7 7 7 8 7 7 7 7 6 5 4 6 6 7 7 7 7 6 4 2 3 5 6 7 4 4 4 4 5
5 6 7 7 8 9 8 8 8 7 6 6 7 8 9 8 8 8 8 8 7 7 7 4 6 7 6 5 6 6 7 8 7 7 5 5 5 5 4 6 8 4 5
Wind_Direction
127 128 119 126 129 128 132 133 132 123 123 131 126 117 123 123 108 108 108 96 95 86 67 76 59 43 15 356 12 22 39 68 144 301 261 282 302 330 335 342 333 336 335
133 130 127 127 126 124 126 134 131 134 132 134 122 112 120 129 134 132 112 109 97 98 83 65 46 24 9 359 2 24 19 350 91 348 283 294 291 320 310 327 339 343 342
126 128 121 128 129 128 141 134 135 135 127 124 113 110 104 109 125 131 116 92 82 93 92 79 51 18 11 347 2 13 355 335 355 305 282 269 271 303 330 340 348 347 359
129 127 126 136 134 133 136 132 129 124 116 99 96 96 96 93 100 112 99 94 90 92 91 79 52 34 9 355 357 345 336 358 354 320 295 298 310 324 356 351 354 349 341
127 136 139 130 121 126 138 125 116 102 107 110 104 95 94 85 70 102 107 109 107 98 103 89 27 33 40 32 355 328 355 35 336 312 303 304 300 325 354 344 345 334 330
136 128 135 130 131 140 132 121 109 112 108 103 102 115 103 86 66 90 115 118 99 87 96 56 15 20 10 18 11 7 98 96 341 326 313 301 300 301 315 338 337 341 352
129 153 142 131 134 144 128 116 121 114 109 107 107 115 101 92 72 85 94 99 97 93 90 72 40 13 17 14 360 4 7 353 301 259 287 307 311 317 313 334 336 313 307
150 157 130 133 144 133 124 119 120 119 120 120 115 112 103 67 40 77 105 110 98 101 99 98 75 20 15 20 7 10 350 340 353 330 264 287 276 300 289 272 274 289 277
142 148 150 143 147 130 126 131 127 124 118 118 115 120 105 66 37 121 115 110 110 112 83 71 59 22 359 7 35 13 4 14 346 4 6 3 3 4 14 3 357 347 333
146 156 152 144 138 131 133 140 141 127 121 115 106 104 102 87 57 100 120 126 127 134 78 12 6 24 22 30 46 23 30 346 349 353 359 1 2 356 9 22 340 344 333
135 146 151 140 132 134 134 146 126 120 118 110 108 92 90 88 75 86 109 145 142 123 88 25 330 7 19 40 66 45 337 294 350 14 5 6 4 1 346 353 358 325 357
141 143 139 136 143 139 138 136 116 123 124 115 109 93 71 75 78 82 98 118 137 113 79 342 317 53 64 47 39 28 29 33 19 19 15 357 352 342 328 337 345 352 342
134 140 142 141 134 135 143 133 132 134 126 128 133 121 123 60 59 61 69 82 77 88 59 341 74 76 71 42 34 29 32 30 29 26 1 341 311 302 334 354 356 359 8
139 139 140 123 126 125 122 149 142 138 136 144 144 146 138 111 110 76 67 59 50 70 55 53 68 78 62 43 26 18 26 30 46 20 342 319 337 1 356 343 359 349 9
134 136 119 108 101 90 64 38 123 95 152 164 162 157 147 156 199 133 116 89 82 79 85 54 45 32 31 28 20 22 17 27 26 8 12 1 1 2 353 342 352 349 32
127 123 123 120 116 114 111 84 40 62 118 119 126 148 130 137 147 127 79 77 102 107 62 73 64 54 50 42 35 24 29 28 15 19 14 8 4 3 357 344 352 357 360
131 128 117 118 124 131 133 127 109 51 62 78 115 118 128 153 125 86 77 83 85 85 86 71 74 56 43 54 54 42 23 354 8 27 13 5 359 6 8 6 3 360 360
119 119 125 131 137 135 136 128 127 131 132 114 31 127 124 110 90 85 94 83 65 49 93 99 83 66 61 66 45 38 20 12 20 12 11 6 5 354 14 8 1 3 355
124 126 123 126 138 138 132 122 120 127 137 143 121 73 97 95 86 93 86 106 119 108 95 79 83 77 69 64 49 42 35 26 13 15 10 11 0 356 4 3 1 0 5
130 132 133 137 143 142 137 131 131 139 145 143 139 137 132 94 99 88 85 103 108 98 99 103 85 73 67 63 47 42 46 32 22 17 7 3 357 352 11 9 10 4 3
131 141 142 142 143 143 148 141 137 144 150 140 132 154 124 124 120 116 110 97 115 109 110 99 84 76 68 68 66 50 51 36 22 12 10 351 354 1 5 15 14 10 8
134 144 152 150 143 147 142 135 138 145 148 136 128 103 132 115 112 117 109 106 103 107 117 106 87 79 79 73 67 65 54 32 13 8 4 354 3 2 10 15 10 11 5
135 143 149 149 153 139 139 133 144 151 145 148 137 136 134 124 125 128 123 117 119 112 100 99 99 81 64 70 61 64 62 24 353 357 5 357 7 25 20 12 10 6 8
124 131 137 147 145 142 137 140 146 147 149 147 138 140 137 132 134 131 124 115 113 103 96 90 85 91 76 50 42 30 11 327 323 334 14 22 27 20 28 28 15 8 15
112 122 135 146 149 149 144 146 150 151 144 140 133 135 129 128 127 127 123 125 121 113 102 99 95 89 78 64 47 18 346 358 34 23 33 38 48 43 26 36 34 14 9
86 105 114 131 142 147 144 152 155 149 146 142 140 142 142 144 140 138 136 125 123 116 110 101 99 95 81 57 43 20 12 17 30 32 35 38 39 34 44 34 35 33 20